Weather History for Crookston, MN

Change the Weather History Date:

Wednesday, February 13, 2013

  Actual Average Record
Temperature  
Mean Temperature 17 °F -  
Max Temperature 26 °F 21 °F 55 °F (1997)
Min Temperature 8 °F 3 °F -18 °F (2007)
Degree Days  
Heating Degree Days 48    
Moisture  
Dew Point 16 °F    
Average Humidity 92    
Maximum Humidity 100    
Minimum Humidity 80    
Precipitation  
Precipitation 0.00 in - - ()
Sea Level Pressure  
Sea Level Pressure 29.67 in    
Wind  
Wind Speed 5 mph (WNW)    
Max Wind Speed 12 mph    
Max Gust Speed -    
Visibility 8 miles    
Events Fog    
Averages and records for this station are not official NWS values.
T = Trace of Precipitation, MM = Missing Value Source: NWS Daily Summary

Daily Weather History Graph

Daily Weather History Graph

Search for Another Location

Airport:

Trip Planner

Search our weather history database for the weather conditions in past years. The results will help you decide how hot, cold, wet, or windy it might be!

Date:

Astronomy

Feb. 13, 2013 Rise Set
Actual Time 7:35 AM CST 5:46 PM CST
Civil Twilight 7:03 AM CST 6:18 PM CST
Nautical Twilight 6:27 AM CST 6:55 PM CST
Astronomical Twilight 5:51 AM CST 7:30 PM CST
Moon 8:45 AM CST (2/13) 10:13 PM CST (2/13)
Length of Visible Light 11h 15m
Length of Day
10h 11m
Waxing Crescent, 14% of the Moon is Illuminated
Feb 13
Waxing Crescent
Feb 17
First Quarter
Feb 25
Full
Mar 4
Last Quarter
Mar 11
New

Hourly Weather History & Observations

Time (CST) Temp. Windchill Dew Point Humidity Pressure Visibility Wind Dir Wind Speed Gust Speed Precip Events Conditions
12:14 AM 23.0 °F 13.9 °F 19.4 °F 86% 29.72 in 10.0 mi SSW 8.1 mph - N/A   Mostly Cloudy
12:35 AM 21.2 °F 13.6 °F 19.4 °F 93% 29.71 in 10.0 mi SSW 5.8 mph - N/A   Scattered Clouds
12:54 AM 19.4 °F 11.5 °F 17.6 °F 93% 29.71 in 10.0 mi SSW 5.8 mph - N/A   Scattered Clouds
1:14 AM 19.4 °F 10.4 °F 17.6 °F 93% 29.71 in 10.0 mi South 6.9 mph - N/A   Mostly Cloudy
1:35 AM 19.4 °F 9.5 °F 17.6 °F 93% 29.70 in 10.0 mi SSW 8.1 mph - N/A   Scattered Clouds
1:54 AM 19.4 °F 11.5 °F 19.4 °F 100% 29.71 in 10.0 mi SSW 5.8 mph - N/A   Scattered Clouds
2:14 AM 19.4 °F 10.4 °F 17.6 °F 93% 29.70 in 10.0 mi SSW 6.9 mph - N/A   Scattered Clouds
2:35 AM 19.4 °F 10.4 °F 19.4 °F 100% 29.70 in 10.0 mi SW 6.9 mph - N/A   Clear
2:54 AM 17.6 °F 7.3 °F 17.6 °F 100% 29.69 in 10.0 mi SSW 8.1 mph - N/A   Clear
3:15 AM 17.6 °F 8.2 °F 15.8 °F 93% 29.69 in 10.0 mi SW 6.9 mph - N/A   Clear
3:35 AM 17.6 °F 9.3 °F 15.8 °F 93% 29.68 in 7.0 mi SW 5.8 mph - N/A   Clear
3:54 AM 15.8 °F 8.6 °F 15.8 °F 100% 29.68 in 5.0 mi WSW 4.6 mph - N/A   Clear
4:14 AM 17.6 °F 10.7 °F 15.8 °F 93% 29.67 in 3.0 mi SW 4.6 mph - N/A   Clear
4:35 AM 12.2 °F 4.3 °F 10.4 °F 92% 29.67 in 4.0 mi SSW 4.6 mph - N/A   Clear
4:54 AM 10.4 °F 2.2 °F 8.6 °F 92% 29.67 in 7.0 mi South 4.6 mph - N/A   Clear
5:15 AM 10.4 °F 2.2 °F 10.4 °F 100% 29.66 in 5.0 mi South 4.6 mph - N/A   Clear
5:35 AM 10.4 °F 4.0 °F 8.6 °F 92% 29.67 in 5.0 mi South 3.5 mph - N/A   Clear
5:54 AM 10.4 °F 4.0 °F 8.6 °F 92% 29.66 in 7.0 mi South 3.5 mph - N/A   Clear
6:15 AM 10.4 °F - 8.6 °F 92% 29.66 in 4.0 mi Calm Calm - N/A   Clear
6:34 AM 12.2 °F 6.1 °F 10.4 °F 92% 29.66 in 2.0 mi South 3.5 mph - N/A   Clear
6:54 AM 8.6 °F 0.1 °F 6.8 °F 92% 29.66 in 3.0 mi SSE 4.6 mph - N/A   Clear
7:15 AM 8.6 °F -2.6 °F 6.8 °F 92% 29.65 in 5.0 mi SE 6.9 mph - N/A   Clear
7:34 AM 10.4 °F 0.8 °F 8.6 °F 92% 29.65 in 0.5 mi SE 5.8 mph - N/A Fog Light Freezing Fog
7:54 AM 10.4 °F 0.8 °F 6.8 °F 85% 29.65 in 0.2 mi SSE 5.8 mph - N/A Fog Light Freezing Fog
8:15 AM 10.4 °F 4.0 °F 8.6 °F 92% 29.65 in 2.0 mi SSE 3.5 mph - N/A   Mostly Cloudy
8:34 AM 10.4 °F 4.0 °F 8.6 °F 92% 29.65 in 2.5 mi SE 3.5 mph - N/A   Mist
8:54 AM 12.2 °F 2.9 °F 10.4 °F 92% 29.64 in 4.0 mi SSE 5.8 mph - N/A   Clear
9:15 AM 12.2 °F 4.3 °F 10.4 °F 92% 29.64 in 5.0 mi SSE 4.6 mph - N/A   Clear
9:34 AM 12.2 °F - 10.4 °F 92% 29.65 in 10.0 mi Calm Calm - N/A   Clear
9:54 AM 14.0 °F - 12.2 °F 93% 29.64 in 7.0 mi Calm Calm - N/A   Clear
10:15 AM 15.8 °F - 14.0 °F 93% 29.64 in 5.0 mi Calm Calm - N/A   Clear
10:34 AM 17.6 °F - 15.8 °F 93% 29.64 in 7.0 mi Calm Calm - N/A   Clear
10:54 AM 17.6 °F 12.3 °F 17.6 °F 100% 29.64 in 7.0 mi SE 3.5 mph - N/A   Clear
11:15 AM 19.4 °F 12.8 °F 17.6 °F 93% 29.63 in 7.0 mi SE 4.6 mph - N/A   Clear
11:34 AM 19.4 °F 14.3 °F 19.4 °F 100% 29.63 in 10.0 mi SE 3.5 mph - N/A   Clear
11:54 AM 21.2 °F - 19.4 °F 93% 29.63 in 10.0 mi Calm Calm - N/A   Clear
12:15 PM 21.2 °F 16.4 °F 19.4 °F 93% 29.63 in 10.0 mi SSE 3.5 mph - N/A   Clear
12:34 PM 23.0 °F - 21.2 °F 93% 29.62 in 10.0 mi Calm Calm - N/A   Clear
12:55 PM 24.8 °F - 21.2 °F 86% 29.62 in 10.0 mi Calm Calm - N/A   Clear
1:15 PM 24.8 °F - 21.2 °F 86% 29.62 in 10.0 mi Calm Calm - N/A   Clear
1:34 PM 26.6 °F - 21.2 °F 80% 29.61 in 10.0 mi Calm Calm - N/A   Clear
1:55 PM 26.6 °F - 21.2 °F 80% 29.62 in 10.0 mi Calm Calm - N/A   Clear
2:15 PM 24.8 °F - 21.2 °F 86% 29.61 in 10.0 mi Calm Calm - N/A   Clear
2:34 PM 26.6 °F - 21.2 °F 80% 29.61 in 10.0 mi Calm Calm - N/A   Clear
2:55 PM 24.8 °F 19.1 °F 21.2 °F 86% 29.62 in 10.0 mi North 4.6 mph - N/A   Clear
3:14 PM 24.8 °F 17.9 °F 21.2 °F 86% 29.63 in 10.0 mi North 5.8 mph - N/A   Clear
3:34 PM 24.8 °F 19.1 °F 21.2 °F 86% 29.63 in 10.0 mi North 4.6 mph - N/A   Clear
3:55 PM 24.8 °F 19.1 °F 21.2 °F 86% 29.63 in 10.0 mi NNE 4.6 mph - N/A   Scattered Clouds
4:14 PM 23.0 °F 18.4 °F 21.2 °F 93% 29.64 in 10.0 mi North 3.5 mph - N/A   Mostly Cloudy
4:34 PM 23.0 °F 15.8 °F 21.2 °F 93% 29.64 in 10.0 mi North 5.8 mph - N/A   Scattered Clouds
4:55 PM 23.0 °F 17.0 °F 21.2 °F 93% 29.65 in 10.0 mi North 4.6 mph - N/A   Clear
5:14 PM 23.0 °F 17.0 °F 21.2 °F 93% 29.65 in 10.0 mi North 4.6 mph - N/A   Clear
5:34 PM 21.2 °F 14.9 °F 19.4 °F 93% 29.66 in 10.0 mi North 4.6 mph - N/A   Clear
5:55 PM 21.2 °F 11.7 °F 19.4 °F 93% 29.67 in 10.0 mi North 8.1 mph - N/A   Scattered Clouds
6:14 PM 21.2 °F 12.6 °F 19.4 °F 93% 29.68 in 10.0 mi North 6.9 mph - N/A   Clear
6:34 PM 19.4 °F 10.4 °F 17.6 °F 93% 29.69 in 10.0 mi North 6.9 mph - N/A   Clear
6:55 PM 17.6 °F 8.2 °F 15.8 °F 93% 29.69 in 10.0 mi North 6.9 mph - N/A   Clear
7:14 PM 15.8 °F 7.2 °F 15.8 °F 100% 29.70 in 10.0 mi North 5.8 mph - N/A   Clear
7:34 PM 15.8 °F 7.2 °F 14.0 °F 93% 29.71 in 10.0 mi NNW 5.8 mph - N/A   Clear
7:55 PM 15.8 °F 7.2 °F 14.0 °F 93% 29.72 in 10.0 mi NNW 5.8 mph - N/A   Clear
8:14 PM 14.0 °F 3.9 °F 12.2 °F 93% 29.72 in 10.0 mi NNW 6.9 mph - N/A   Clear
8:35 PM 14.0 °F 3.9 °F 12.2 °F 93% 29.73 in 10.0 mi NNW 6.9 mph - N/A   Clear
8:54 PM 12.2 °F -0.2 °F 12.2 °F 100% 29.74 in 10.0 mi NNW 9.2 mph - N/A   Clear
9:14 PM 14.0 °F 2.0 °F 12.2 °F 93% 29.74 in 10.0 mi North 9.2 mph - N/A   Clear
9:35 PM 14.0 °F 3.9 °F 12.2 °F 93% 29.74 in 10.0 mi North 6.9 mph - N/A   Mostly Cloudy
9:54 PM 15.8 °F 4.2 °F 14.0 °F 93% 29.74 in 10.0 mi North 9.2 mph - N/A   Overcast
10:14 PM 15.8 °F 5.1 °F 15.8 °F 100% 29.75 in 10.0 mi North 8.1 mph - N/A   Overcast
10:35 PM 17.6 °F 6.4 °F 15.8 °F 93% 29.75 in 10.0 mi North 9.2 mph - N/A   Overcast
10:54 PM 17.6 °F 5.0 °F 15.8 °F 93% 29.76 in 10.0 mi North 11.5 mph - N/A   Overcast
11:14 PM 17.6 °F 5.7 °F 15.8 °F 93% 29.76 in 10.0 mi North 10.4 mph - N/A   Overcast
11:35 PM 17.6 °F 6.4 °F 15.8 °F 93% 29.77 in 10.0 mi NNW 9.2 mph - N/A   Overcast
11:54 PM 17.6 °F 6.4 °F 15.8 °F 93% 29.78 in 10.0 mi North 9.2 mph - N/A   Overcast